Flag for Czech Republic Weather past 2 weeks in Tábor, Czech Republic

Now
43 °F

Partly sunny.


Feels Like: 41 °F
Forecast: 35 / 54 °F
Wind: 5 mph from Northwest

Location: Kocelovice

Current Time: Mar 28, 2015 at 1:46:27 PM

Latest Report: Mar 28, 2015 at 1:00 PM


Visibility: 22 mi

Pressure: 30.15 "Hg

Humidity: 47%

Dew point: 24 °F

Location of TáborLocation

Historic Weather in Tábor — Graph

°F

Tábor temperature yesterday

Maximum temperature yesterday: 46 °F (at 4:00 PM)
Minimum temperature yesterday: 37 °F (at 2:00 AM)
Average temperature yesterday: 40 °F

Past Weeks' High & Low Weather Summary

 TemperatureHumidityPressure
High58 °F (Mar 25, 1:00 PM)99% (Mar 15, 3:00 AM)30.39 "Hg (Mar 15, 3:00 AM)
Low26 °F (Mar 20, 7:00 AM)22% (Mar 20, 3:00 PM)29.62 "Hg (Mar 25, 5:00 PM)
Average40 °F73%30.13 "Hg
* Reported Mar 13 12:00 Noon — Mar 28 12:00 Noon, Tábor, Weather by CustomWeather, © 2015

Note: Actual official high and low records may vary slightly from our data, if they occured in-between our weather recording intervals... More about our weather records

Advertising

Tábor weather history for previous 24 hours

 ConditionsComfort  
Time TempWeatherWind HumidityBarometerVisibility
12:00 PM
Sat, Mar 28
42 °FOvercast.5 mph53%30.17 "Hg22 mi
11:00 AM42 °FOvercast.3 mph58%30.20 "Hg19 mi
10:00 AM41 °FOvercast.6 mph65%30.21 "Hg14 mi
9:00 AM40 °FOvercast.5 mph71%30.22 "Hg11 mi
8:00 AM39 °FOvercast.3 mph77%30.22 "Hg10 mi
7:00 AM38 °FOvercast.3 mph77%30.22 "Hg9 mi
6:00 AM38 °FChilly.3 mph78%30.21 "Hg9 mi
5:00 AM38 °FChilly.5 mph77%30.20 "Hg10 mi
4:00 AM39 °FChilly.5 mph75%30.19 "Hg11 mi
3:00 AM39 °FChilly.5 mph74%30.19 "Hg12 mi
2:00 AM39 °FChilly.5 mph73%30.19 "Hg12 mi
1:00 AM39 °FChilly.5 mph75%30.19 "Hg12 mi
12:00 AM39 °FChilly.5 mph75%30.19 "Hg12 mi
11:00 PM
Fri, Mar 27
40 °FChilly.6 mph74%30.18 "Hg12 mi
10:00 PM40 °FChilly.6 mph73%30.17 "Hg12 mi
9:00 PM38 °FPassing clouds.8 mph75%30.15 "Hg17 mi
8:00 PM39 °FPassing clouds.6 mph76%30.13 "Hg17 mi
7:00 PM40 °FPassing clouds.7 mph73%30.11 "Hg12 mi
6:00 PM42 °FOvercast.8 mph65%30.07 "Hg12 mi
5:00 PM44 °FOvercast.8 mph54%30.03 "Hg16 mi
4:00 PM46 °FOvercast.8 mph56%30.01 "Hg16 mi
3:00 PM43 °FSprinkles. Overcast.7 mph73%30.01 "Hg14 mi
2:00 PM42 °FSprinkles. Overcast.6 mph77%30.01 "Hg12 mi
1:00 PM45 °FOvercast.8 mph67%29.99 "Hg14 mi
Weather by CustomWeather, © 2015

See weather overviewHow to use our weather pages